Satellite-Ground Cal/Val Site Overpasses Predictions

Prediction of Satellite NPP Overpassing Cal/Val Site: Antarctic Dome C

Ground Cal/Val Site Location: Latitude: -75.10, Longitude: 123.35; Satellite-Ground Site NADIR distance within 100 km.

Table of predicted overpasses for the next 14.0 days since TLE Epoch: 2/12/2015
Interval Starting Time Ending Time Minimum Distance Time Minimum Distance (km)
1 02/12/2015 07:25:19 02/12/2015 07:25:39 02/12/2015 07:25:29 70.79
2 02/14/2015 15:07:32 02/14/2015 15:07:57 02/14/2015 15:07:44 53.06
3 02/15/2015 14:48:43 02/15/2015 14:49:07 02/15/2015 14:48:55 56.05
4 02/16/2015 07:50:23 02/16/2015 07:50:42 02/16/2015 07:50:33 74.81
5 02/17/2015 07:31:29 02/17/2015 07:31:57 02/17/2015 07:31:43 33.13
6 02/19/2015 15:13:53 02/19/2015 15:14:05 02/19/2015 15:13:59 91.01
7 02/20/2015 14:54:53 02/20/2015 14:55:22 02/20/2015 14:55:08 20.28
8 02/22/2015 07:37:42 02/22/2015 07:38:12 02/22/2015 07:37:57 3.87


NCC Satellite Cal/Val Overpasses Prediction Service
